Puyallup, WA
on Thursday, January 17, 2013

Thursday
Previous Day Next Day
Daily Summary
 ActualAverage (KSEA)Record (KSEA)
Temperature
Mean Temperature °F 42°F  
Max Temperature 42°F 47°F 55°F (1977)
Min Temperature 23°F 37°F 15°F (1950)
Degree Days
Heating Degree Days 32 23  
Month to date heating degree days 399  
Since 1 July heating degree days 2337  
Cooling Degree Days 0 0  
Month to date cooling degree days 0  
Year to date cooling degree days 0  
Moisture
Dew Point 28°F   
Average Humidity 98    
Maximum Humidity 100    
Minimum Humidity 76    
Precipitation
Precipitation 0.00 in 0.19 in 2.39 in (2005)
Month to date precipitation 3.22  
Year to date precipitation 3.22  
Snow
Snow 0.00 in in 5.70 in (1954)
Month to date snowfall  
Since 1 July snowfall  
Snow Depth in   
Wind
Wind Speed 0 mph   
Max Wind Speed 5 mph   
Max Gust Speed mph   
Visibility 5 miles   
Events Fog , Snow   

Key: T is trace of precipitation, MM is missing value
Source: NWS Daily Summary
Time(PST)TemperatureDew PointHumidity Pressure Visibility Wind DirectionWind SpeedGust SpeedPrecipitationEvents Conditions
12:15 AM 24.8°F 24.8°F 100% 30.51 in 5.0 miles Calm Calm - N/A   Clear
12:35 AM 24.8°F 24.8°F 100% 30.50 in 7.0 miles Calm Calm - N/A   Clear
12:55 AM 23.0°F 23.0°F 100% 30.50 in 7.0 miles Calm Calm - N/A   Clear
1:15 AM 23.0°F 23.0°F 100% 30.51 in 8.0 miles Calm Calm - N/A   Clear
1:35 AM 24.8°F 24.8°F 100% 30.50 in 9.0 miles Calm Calm - N/A   Clear
1:55 AM 24.8°F 24.8°F 100% 30.50 in 7.0 miles Calm Calm - N/A   Clear
2:15 AM 23.0°F 23.0°F 100% 30.50 in 8.0 miles Calm Calm - N/A   Clear
2:35 AM 23.0°F 23.0°F 100% 30.51 in 8.0 miles Calm Calm - N/A   Clear
2:55 AM 24.8°F 24.8°F 100% 30.50 in 10.0 miles Calm Calm - N/A   Clear
3:15 AM 24.8°F 24.8°F 100% 30.50 in 10.0 miles Calm Calm - N/A   Clear
3:35 AM 24.8°F 24.8°F 100% 30.48 in 8.0 miles Calm Calm - N/A   Clear
3:55 AM 24.8°F 24.8°F 100% 30.46 in 9.0 miles Calm Calm - N/A   Clear
4:15 AM 23.0°F 23.0°F 100% 30.45 in 10.0 miles Calm Calm - N/A   Clear
4:35 AM 23.0°F 23.0°F 100% 30.45 in 10.0 miles Calm Calm - N/A   Clear
4:55 AM 23.0°F 23.0°F 100% 30.45 in 10.0 miles Calm Calm - N/A   Clear
5:15 AM 23.0°F 23.0°F 100% 30.45 in 9.0 miles Calm Calm - N/A   Mostly Cloudy
5:35 AM 24.8°F 24.8°F 100% 30.45 in 9.0 miles Calm Calm - N/A   Overcast
5:55 AM 24.8°F 24.8°F 100% 30.45 in 7.0 miles Calm Calm - N/A   Overcast
6:15 AM 24.8°F 24.8°F 100% 30.44 in 1.0 miles Calm Calm - N/A   Overcast
6:35 AM 24.8°F 24.8°F 100% 30.44 in 0.2 miles Calm Calm - N/A Fog Light Freezing Fog
6:55 AM 24.8°F 24.8°F 100% 30.43 in 1.8 miles Calm Calm - N/A   Mostly Cloudy
7:15 AM 23.0°F 23.0°F 100% 30.43 in 0.5 miles Calm Calm - N/A Fog Light Freezing Fog
7:35 AM 23.0°F 23.0°F 100% 30.43 in 2.0 miles Calm Calm - N/A   Mostly Cloudy
7:55 AM 23.0°F 23.0°F 100% 30.44 in 2.5 miles Calm Calm - N/A   Mostly Cloudy
8:15 AM 24.8°F 24.8°F 100% 30.44 in 3.0 miles Calm Calm - N/A   Overcast
8:35 AM 24.8°F 24.8°F 100% 30.44 in 3.0 miles Calm Calm - N/A   Overcast
8:55 AM 26.6°F 26.6°F 100% 30.44 in 1.2 miles Calm Calm - N/A   Overcast
9:15 AM 26.6°F 26.6°F 100% 30.45 in 0.2 miles Calm Calm - N/A Fog Light Freezing Fog
9:35 AM 28.4°F 28.4°F 100% 30.46 in 0.2 miles Calm Calm - N/A Fog Light Freezing Fog
9:55 AM 28.4°F 28.4°F 100% 30.45 in 0.2 miles Calm Calm - N/A Fog Light Freezing Fog
10:15 AM 28.4°F 28.4°F 100% 30.45 in 0.2 miles Calm Calm - N/A Fog Light Freezing Fog
10:35 AM 30.2°F 30.2°F 100% 30.44 in 0.5 miles Calm Calm - N/A Fog Light Freezing Fog
10:55 AM 32.0°F 32.0°F 100% 30.44 in 2.0 miles Calm Calm - N/A   Mostly Cloudy
11:15 AM 33.8°F 33.8°F 100% 30.43 in 7.0 miles Calm Calm - N/A Snow Light Snow
11:35 AM 35.6°F 35.6°F 100% 30.42 in 8.0 miles Calm Calm - N/A   Clear
11:55 AM 35.6°F 35.6°F 100% 30.41 in 9.0 miles Calm Calm - N/A   Clear
12:15 PM 37.4°F 35.6°F 93% 30.40 in 10.0 miles Calm Calm - N/A   Clear
12:35 PM 39.2°F 35.6°F 87% 30.39 in 10.0 miles Calm Calm - N/A   Clear
12:55 PM 39.2°F 35.6°F 87% 30.38 in 10.0 miles Calm Calm - N/A   Clear
1:15 PM 41.0°F 35.6°F 81% 30.37 in 10.0 miles Calm Calm - N/A   Clear
1:35 PM 41.0°F 35.6°F 81% 30.35 in 10.0 miles Calm Calm - N/A   Clear
1:55 PM 42.8°F 35.6°F 76% 30.34 in 10.0 miles Calm Calm - N/A   Clear
2:55 PM 41.0°F 35.6°F 81% 30.33 in 10.0 miles North 4.6 mph - N/A   Clear
3:35 PM 39.2°F 35.6°F 87% 30.33 in 10.0 miles Calm Calm - N/A   Clear
5:55 PM 32.0°F 32.0°F 100% 30.33 in 0.2 miles Calm Calm - N/A Fog Light Freezing Fog
6:15 PM 32.0°F 32.0°F 100% 30.32 in 0.2 miles Calm Calm - N/A Fog Light Freezing Fog
6:55 PM 32.0°F 32.0°F 100% 30.32 in 0.2 miles Calm Calm - N/A Fog Light Freezing Fog
7:15 PM 32.0°F 32.0°F 100% 30.32 in 0.2 miles Calm Calm - N/A Fog Fog
7:35 PM 32.0°F 32.0°F 100% 30.32 in 0.2 miles Calm Calm - N/A Fog Light Freezing Fog
7:55 PM 32.0°F 32.0°F 100% 30.31 in 0.2 miles Calm Calm - N/A Fog Light Freezing Fog
9:15 PM 30.2°F 30.2°F 100% 30.31 in 0.2 miles Calm Calm - N/A Fog Light Freezing Fog
9:35 PM 30.2°F 30.2°F 100% 30.31 in 0.2 miles Calm Calm - N/A Fog Light Freezing Fog
9:55 PM 28.4°F 28.4°F 100% 30.31 in 0.2 miles Calm Calm - N/A Fog Light Freezing Fog
10:15 PM 28.4°F 28.4°F 100% 30.30 in 0.2 miles Calm Calm - N/A Fog Light Freezing Fog
10:35 PM 28.4°F 28.4°F 100% 30.30 in 0.2 miles Calm Calm - N/A Fog Light Freezing Fog
10:55 PM 28.4°F 28.4°F 100% 30.30 in 0.2 miles Calm Calm - N/A Fog Light Freezing Fog
11:15 PM 28.4°F 28.4°F 100% 30.30 in 0.2 miles Calm Calm - N/A Fog Light Freezing Fog
11:35 PM 28.4°F 28.4°F 100% 30.29 in 0.5 miles Calm Calm - N/A Fog Light Freezing Fog
11:55 PM 26.6°F 26.6°F 100% 30.29 in 0.5 miles Calm Calm - N/A Fog Light Freezing Fog
Moon Phase
Jan. 17 Jan. 18 Jan. 26 Feb. 03 Feb. 10
Sunrise:07:49 AM (PST) Moon Rise:10:29 AM (PST)1/17
Sunset:04:50 PM (PST) Moon Set:No Moon Set/

Copyright © 2014 The Weather Underground, Inc.